Regional Weather Roundup
Issued by NWS Boston, MA

Home | Current Version | Previous Version | Text Only | Print | Product List | Glossary On
Versions: 1 2 3 4 5 6 7 8 9 10 11 12 13 14 15 16 17 18 19 20 21 22 23 24 25 26 27 28 29 30 31 32 33 34 35 36 37 38 39 40 41 42 43 44 45 46 47 48 49 50
000
ASUS41 KBOX 260210
RWRBOX

REGIONAL WEATHER ROUNDUP
NATIONAL WEATHER SERVICE TAUNTON MA
1000 PM EDT THU MAY 25 2017

NOTE:  "FAIR" INDICATES FEW OR NO CLOUDS BELOW 12,000 FEET WITH NO
SIGNIFICANT WEATHER AND/OR OBSTRUCTIONS TO VISIBILITY.

MAZALL-260300-
EASTERN MASSACHUSETTS

CITY           SKY/WX    TMP DP  RH WIND       PRES   REMARKS
BOSTON         DRIZZLE   51  51 100 NE18      29.66F FOG
BEVERLY        CLOUDY    52  50  93 NE13G20   29.68F FOG
LAWRENCE       CLOUDY    52  49  89 NE14G22   29.71F FOG
BEDFORD        CLOUDY    50  47  89 NE12      29.66F FOG
BLUE HILL        N/A     50  49  96 NE12G24   29.64F
NORWOOD        CLOUDY    52  52 100 NE7       29.65F FOG
MARSHFIELD     FOG       54  54 100 NE7       29.64F VSB 1/4
PLYMOUTH       FOG       53  52  96 NE7       29.63F VSB 1/2
TAUNTON        CLOUDY    53  51  93 N6        29.63S FOG
NEW BEDFORD    CLOUDY    54  53  97 NE6       29.60F FOG
$$

MAZALL-260300-
CAPE COD AND THE ISLANDS

CITY           SKY/WX    TMP DP  RH WIND       PRES   REMARKS
FALMOUTH         N/A    N/A N/A N/A MISG        N/A
HYANNIS        FOG       56  56 100 E3        29.61F VSB 1/2
CHATHAM        FOG       56  56 100 SE5       29.64S VSB 1/2
PROVINCETOWN   FOG       52  52 100 E10       29.65S VSB 1
NANTUCKET      LGT RAIN  56  55  97 SE8       29.61F VSB 1/4
MARTHAS VNYRD  FOG       58  57  97 E6        29.59F VSB 1/4
$$

MAZALL-260300-
CENTRAL AND WESTERN MASSACHUSETTS

CITY           SKY/WX    TMP DP  RH WIND       PRES   REMARKS
WORCESTER      LGT RAIN  48  47  96 NE12G23   29.64F FOG
FITCHBURG      CLOUDY    51  49  92 VRB5      29.71F FOG
ORANGE         CLOUDY    51  49  92 NE8       29.66F
SPRINGFIELD    DRIZZLE   52  50  93 NE10      29.61F
WESTFIELD      CLOUDY    52  52 100 N9        29.62F
NORTH ADAMS    CLOUDY    54  47  77 E15G21    29.63F
PITTSFIELD     CLOUDY    51  46  83 NE12G18   29.61F
$$

RIZALL-260300-
RHODE ISLAND

CITY           SKY/WX    TMP DP  RH WIND       PRES   REMARKS
PROVIDENCE     DRZL/FOG  53  53 100 N14       29.62F VSB 1
NEWPORT        CLOUDY    54  54 100 NE12      29.58F FOG
BLOCK ISLAND   LGT RAIN  55  55 100 MISG        N/A  VSB 1/2
SMITHFIELD     LGT RAIN  51  51 100 NE14      29.63F FOG
WESTERLY       CLOUDY    56  55  97 N7        29.58F
$$

CTZALL-260300-
CONNECTICUT

CITY           SKY/WX    TMP DP  RH WIND       PRES   REMARKS
BRADLEY INTL   DRIZZLE   53  52  96 N10       29.61F
HARTFORD       LGT RAIN  54  53  97 N12       29.59F FOG
BRIDGEPORT     LGT RAIN  58  55  90 NE13      29.52F
DANBURY        CLOUDY    54  54 100 NE12      29.54F FOG
GROTON         RAIN      56  55  97 NE12      29.56F FOG
NEW HAVEN      CLOUDY    56  55  97 NE13      29.54F
CHESTER        CLOUDY    55  55 100 NE8       29.56F FOG
MERIDEN        CLOUDY    54  54 100 N9        29.57F FOG
WILLIMANTIC    CLOUDY    55  53  93 NE13      29.60F
OXFORD           N/A     54  48  82 NE13G22   29.56S
$$

MEZ002-015-021-024-NHZ003-005-008-011-012-014-VTZ005-008-260300-
NORTHERN NEW ENGLAND

CITY           SKY/WX    TMP DP  RH WIND       PRES   REMARKS
PORTLAND ME    HVY RAIN  50  49  96 NE17G28   29.80F FOG
BANGOR ME      CLOUDY    56  48  74 E8        29.89R
CONCORD NH     CLOUDY    50  48  93 E8        29.75R
MANCHESTER NH  DRIZZLE   50  47  89 NE12G20   29.71F FOG
NASHUA NH      LGT RAIN  50  49  96 VRB6      29.72F FOG
PORTSMOUTH NH  LGT RAIN  50  48  94 NE14G23   29.72F FOG
JAFFREY NH     CLOUDY    49  49 100 MISG      29.70F FOG
KEENE NH       CLOUDY    52  47  83 NE8G17    29.68F
BURLINGTON VT  CLOUDY    57  52  83 CALM      29.68S
MT. WASHINGTON LGT RAIN  34  34 100 SE53G70     N/A  VSB 0   WCI  17
$$

NYZ052-076-260300-
EASTERN NEW YORK

CITY           SKY/WX    TMP DP  RH WIND       PRES   REMARKS
ALBANY         LGT RAIN  56  52  86 NE8       29.60F
NEW YORK CITY  DRIZZLE   57  56  96 NE20      29.49S FOG
$$

ANZALL-260300-
MARINE OBSERVATIONS

STATION/POSITION TIME  TEMP    WIND        PRES    VSBY  WAVE
                       AIR SEA DIR/SP/G                  HT/PER
                 (UTC) (F)     (DEG/KT/KT) (MB)    (MI)  (FT/S)
BOSTON BUOY      0150   52 53   60/ 10/ 14 1003.6F         6/ 7
BUZZARDS BAY     0100   55      50/ 14/ 15 1003.1F
NANTUCKET SOUND  0150      54              1002.9F         1/ 6
MASS BAY-STELLWA 0104   51 52   60/ 12/ 16 1004.4F         8/ 7
ISLE OF SHOALS   0100   49      50/ 20/ 22 1006.6R
S OF BLOCK IS    0155      53                N/A           5/ 9
$$

......................KEY.........................
  SKY/WX - SKY CONDITION/PRESENT WEATHER
  TMP    - TEMPERATURE IN FAHRENHEIT
  DWPT   - DEWPOINT IN FAHRENHEIT
  RH     - RELATIVE HUMIDITY IN PERCENT
  WIND   - DIRECTION AND SPEED IN MPH
  PRES   - MEAN SEA LEVEL PRESSURE IN INCHES OF HG
  WCI    - WIND CHILL INDEX
  VSB    - VISIBILITY IN MILES
  HX     - HEAT INDEX
  TC     - TEMPERATURE IN CELSIUS
  VRB    - VARIABLE WIND DIRECTION
  N/A    - NOT AVAILABLE



USA.gov is the U.S. government's official web portal to all federal, state and local government web resources and services.